Time,TemperatureF,DewpointF,PressureIn,WindDirection,WindDirectionDegrees,WindSpeedMPH,WindSpeedGustMPH,Humidity,HourlyPrecipIn,Conditions,Clouds,dailyrainin,SoftwareType,DateUTC
2013-02-21 00:00:00,33.7,15.1,30.10,SSW,196,3.0,4.0,46,0.00,,---,0.00,VWS V14.01,2013-02-21 05:00:00,
2013-02-21 00:05:00,33.4,15.4,30.10,SSW,197,1.0,4.0,47,0.00,,---,0.00,VWS V14.01,2013-02-21 05:05:00,
2013-02-21 00:10:00,33.2,16.1,30.10,SSW,196,2.0,2.0,49,0.00,,---,0.00,VWS V14.01,2013-02-21 05:10:00,
2013-02-21 00:15:00,32.8,15.3,30.11,South,182,2.0,4.0,48,0.00,,---,0.00,VWS V14.01,2013-02-21 05:15:00,
2013-02-21 00:20:00,32.5,14.0,30.11,West,270,4.0,4.0,46,0.00,,---,0.00,VWS V14.01,2013-02-21 05:20:00,
2013-02-21 00:25:00,32.5,14.0,30.12,WSW,240,3.0,6.0,46,0.00,,---,0.00,VWS V14.01,2013-02-21 05:25:00,
2013-02-21 00:30:00,32.6,15.1,30.12,WSW,239,0.0,3.0,48,0.00,,---,0.00,VWS V14.01,2013-02-21 05:30:00,
2013-02-21 00:35:00,32.6,16.5,30.12,WSW,238,0.0,3.0,51,0.00,,---,0.00,VWS V14.01,2013-02-21 05:35:00,
2013-02-21 00:40:00,32.3,15.8,30.11,SE,144,4.0,4.0,50,0.00,,---,0.00,VWS V14.01,2013-02-21 05:40:00,
2013-02-21 00:45:00,32.2,13.8,30.11,SSE,148,2.0,5.0,46,0.00,,---,0.00,VWS V14.01,2013-02-21 05:45:00,
2013-02-21 00:50:00,32.1,13.7,30.10,SSW,198,2.0,6.0,46,0.00,,---,0.00,VWS V14.01,2013-02-21 05:50:00,
2013-02-21 00:55:00,32.3,13.4,30.10,SE,140,0.0,4.0,45,0.00,,---,0.00,VWS V14.01,2013-02-21 05:55:00,
2013-02-21 01:00:00,32.4,13.9,30.10,SSW,199,3.0,5.0,46,0.00,,---,0.00,VWS V14.01,2013-02-21 06:00:00,
2013-02-21 01:05:00,32.3,12.8,30.10,SSW,201,4.0,4.0,44,0.00,,---,0.00,VWS V14.01,2013-02-21 06:05:00,
2013-02-21 01:10:00,32.1,14.6,30.10,SSW,201,0.0,4.0,48,0.00,,---,0.00,VWS V14.01,2013-02-21 06:10:00,
2013-02-21 01:15:00,31.9,14.4,30.10,SSW,201,0.0,2.0,48,0.00,,---,0.00,VWS V14.01,2013-02-21 06:15:00,
2013-02-21 01:20:00,31.6,14.6,30.10,SSW,201,2.0,3.0,49,0.00,,---,0.00,VWS V14.01,2013-02-21 06:20:00,
2013-02-21 01:25:00,31.2,15.6,30.10,SSW,201,1.0,3.0,52,0.00,,---,0.00,VWS V14.01,2013-02-21 06:25:00,
2013-02-21 01:30:00,30.7,14.3,30.11,SSW,192,3.0,3.0,50,0.00,,---,0.00,VWS V14.01,2013-02-21 06:30:00,
2013-02-21 01:35:00,30.3,13.4,30.11,SW,220,7.0,7.0,49,0.00,,---,0.00,VWS V14.01,2013-02-21 06:35:00,
2013-02-21 01:40:00,30.7,13.4,30.11,SW,216,4.0,12.0,48,0.00,,---,0.00,VWS V14.01,2013-02-21 06:40:00,
2013-02-21 01:45:00,31.1,13.7,30.11,SW,222,2.0,10.0,48,0.00,,---,0.00,VWS V14.01,2013-02-21 06:45:00,
2013-02-21 01:50:00,31.4,13.0,30.12,SW,234,4.0,6.0,46,0.00,,---,0.00,VWS V14.01,2013-02-21 06:50:00,
2013-02-21 01:55:00,31.8,12.9,30.11,South,191,4.0,9.0,45,0.00,,---,0.00,VWS V14.01,2013-02-21 06:55:00,
2013-02-21 02:00:00,32.1,14.2,30.12,SSW,196,0.0,5.0,47,0.00,,---,0.00,VWS V14.01,2013-02-21 07:00:00,
2013-02-21 02:05:00,32.0,14.1,30.12,SW,217,5.0,5.0,47,0.00,,---,0.00,VWS V14.01,2013-02-21 07:05:00,
2013-02-21 02:10:00,31.9,14.0,30.12,SSE,167,2.0,8.0,47,0.00,,---,0.00,VWS V14.01,2013-02-21 07:10:00,
2013-02-21 02:15:00,31.8,13.4,30.13,ESE,113,4.0,7.0,46,0.00,,---,0.00,VWS V14.01,2013-02-21 07:15:00,
2013-02-21 02:20:00,31.7,14.7,30.13,ESE,112,0.0,4.0,49,0.00,,---,0.00,VWS V14.01,2013-02-21 07:20:00,
2013-02-21 02:25:00,31.5,14.1,30.12,ESE,112,0.0,0.0,48,0.00,,---,0.00,VWS V14.01,2013-02-21 07:25:00,
2013-02-21 02:30:00,31.2,14.3,30.12,ESE,119,4.0,4.0,49,0.00,,---,0.00,VWS V14.01,2013-02-21 07:30:00,
2013-02-21 02:35:00,30.9,14.5,30.12,SSE,161,5.0,5.0,50,0.00,,---,0.00,VWS V14.01,2013-02-21 07:35:00,
2013-02-21 02:40:00,30.6,14.2,30.12,SSW,196,0.0,5.0,50,0.00,,---,0.00,VWS V14.01,2013-02-21 07:40:00,
2013-02-21 02:45:00,30.3,15.7,30.12,South,180,3.0,4.0,54,0.00,,---,0.00,VWS V14.01,2013-02-21 07:45:00,
2013-02-21 02:50:00,30.0,14.1,30.12,SSE,158,4.0,5.0,51,0.00,,---,0.00,VWS V14.01,2013-02-21 07:50:00,
2013-02-21 02:55:00,29.8,14.8,30.12,SSE,158,0.0,4.0,53,0.00,,---,0.00,VWS V14.01,2013-02-21 07:55:00,
2013-02-21 03:00:00,29.6,15.0,30.12,SSE,158,0.0,1.0,54,0.00,,---,0.00,VWS V14.01,2013-02-21 08:00:00,
2013-02-21 03:05:00,29.3,14.3,30.12,SSE,158,0.0,2.0,53,0.00,,---,0.00,VWS V14.01,2013-02-21 08:05:00,
2013-02-21 03:10:00,29.3,14.3,30.12,ENE,76,1.0,7.0,53,0.00,,---,0.00,VWS V14.01,2013-02-21 08:10:00,
2013-02-21 03:15:00,29.3,14.3,30.11,SE,136,0.0,5.0,53,0.00,,---,0.00,VWS V14.01,2013-02-21 08:15:00,
2013-02-21 03:20:00,29.5,13.2,30.11,SE,137,0.0,4.0,50,0.00,,---,0.00,VWS V14.01,2013-02-21 08:20:00,
2013-02-21 03:25:00,29.7,15.1,30.11,NNE,13,3.0,4.0,54,0.00,,---,0.00,VWS V14.01,2013-02-21 08:25:00,
2013-02-21 03:30:00,29.8,14.3,30.12,SSE,163,1.0,6.0,52,0.00,,---,0.00,VWS V14.01,2013-02-21 08:30:00,
2013-02-21 03:35:00,30.0,14.5,30.12,South,173,2.0,6.0,52,0.00,,---,0.00,VWS V14.01,2013-02-21 08:35:00,
2013-02-21 03:40:00,30.4,13.5,30.12,SE,138,5.0,7.0,49,0.00,,---,0.00,VWS V14.01,2013-02-21 08:40:00,
2013-02-21 03:45:00,31.1,12.8,30.12,South,177,4.0,8.0,46,0.00,,---,0.00,VWS V14.01,2013-02-21 08:45:00,
2013-02-21 03:50:00,31.6,13.2,30.11,SSE,160,5.0,8.0,46,0.00,,---,0.00,VWS V14.01,2013-02-21 08:50:00,
2013-02-21 03:55:00,31.9,13.0,30.12,South,185,2.0,8.0,45,0.00,,---,0.00,VWS V14.01,2013-02-21 08:55:00,
2013-02-21 04:00:00,32.2,12.8,30.11,SSW,207,10.0,10.0,44,0.00,,---,0.00,VWS V14.01,2013-02-21 09:00:00,
2013-02-21 04:05:00,32.3,13.4,30.11,SSE,151,1.0,10.0,45,0.00,,---,0.00,VWS V14.01,2013-02-21 09:05:00,
2013-02-21 04:10:00,32.5,13.0,30.11,SE,141,2.0,5.0,44,0.00,,---,0.00,VWS V14.01,2013-02-21 09:10:00,
2013-02-21 04:15:00,32.6,12.6,30.10,SSW,192,0.0,6.0,43,0.00,,---,0.00,VWS V14.01,2013-02-21 09:15:00,
2013-02-21 04:20:00,32.5,14.0,30.10,SSW,192,2.0,4.0,46,0.00,,---,0.00,VWS V14.01,2013-02-21 09:20:00,
2013-02-21 04:25:00,32.3,15.3,30.11,South,171,0.0,3.0,49,0.00,,---,0.00,VWS V14.01,2013-02-21 09:25:00,
2013-02-21 04:30:00,31.9,15.8,30.11,South,171,0.0,2.0,51,0.00,,---,0.00,VWS V14.01,2013-02-21 09:30:00,
2013-02-21 04:35:00,31.3,14.8,30.11,South,174,2.0,5.0,50,0.00,,---,0.00,VWS V14.01,2013-02-21 09:35:00,
2013-02-21 04:40:00,30.5,16.3,30.12,ENE,74,2.0,5.0,55,0.00,,---,0.00,VWS V14.01,2013-02-21 09:40:00,
2013-02-21 04:45:00,29.7,15.1,30.12,SW,236,1.0,5.0,54,0.00,,---,0.00,VWS V14.01,2013-02-21 09:45:00,
2013-02-21 04:50:00,29.2,14.2,30.12,SW,236,0.0,4.0,53,0.00,,---,0.00,VWS V14.01,2013-02-21 09:50:00,
2013-02-21 04:55:00,28.9,13.9,30.13,NNE,22,3.0,6.0,53,0.00,,---,0.00,VWS V14.01,2013-02-21 09:55:00,
2013-02-21 05:00:00,28.7,15.4,30.13,ESE,119,4.0,4.0,57,0.00,,---,0.00,VWS V14.01,2013-02-21 10:00:00,
2013-02-21 05:05:00,28.5,15.2,30.13,East,86,0.0,5.0,57,0.00,,---,0.00,VWS V14.01,2013-02-21 10:05:00,
2013-02-21 05:10:00,28.4,15.5,30.13,East,86,0.0,0.0,58,0.00,,---,0.00,VWS V14.01,2013-02-21 10:10:00,
2013-02-21 05:15:00,28.3,15.4,30.13,East,86,0.0,2.0,58,0.00,,---,0.00,VWS V14.01,2013-02-21 10:15:00,
2013-02-21 05:20:00,28.1,14.8,30.14,ESE,104,4.0,4.0,57,0.00,,---,0.00,VWS V14.01,2013-02-21 10:20:00,
2013-02-21 05:25:00,28.0,14.8,30.14,ESE,104,0.0,4.0,57,0.00,,---,0.00,VWS V14.01,2013-02-21 10:25:00,
2013-02-21 05:30:00,27.8,15.0,30.14,ESE,104,0.0,4.0,58,0.00,,---,0.00,VWS V14.01,2013-02-21 10:30:00,
2013-02-21 05:35:00,27.7,14.5,30.14,ESE,107,2.0,4.0,57,0.00,,---,0.00,VWS V14.01,2013-02-21 10:35:00,
2013-02-21 05:40:00,27.6,13.6,30.14,NNW,335,4.0,6.0,55,0.00,,---,0.00,VWS V14.01,2013-02-21 10:40:00,
2013-02-21 05:45:00,28.2,13.7,30.14,ESE,123,1.0,5.0,54,0.00,,---,0.00,VWS V14.01,2013-02-21 10:45:00,
2013-02-21 05:50:00,28.4,14.3,30.14,ESE,123,0.0,2.0,55,0.00,,---,0.00,VWS V14.01,2013-02-21 10:50:00,
2013-02-21 05:55:00,28.4,15.9,30.14,ESE,123,2.0,2.0,59,0.00,,---,0.00,VWS V14.01,2013-02-21 10:55:00,
2013-02-21 06:00:00,28.2,15.3,30.14,ESE,123,0.0,2.0,58,0.00,,---,0.00,VWS V14.01,2013-02-21 11:00:00,
2013-02-21 06:05:00,28.1,14.8,30.15,ESE,123,0.0,2.0,57,0.00,,---,0.00,VWS V14.01,2013-02-21 11:05:00,
2013-02-21 06:10:00,27.9,14.6,30.15,SE,125,1.0,4.0,57,0.00,,---,0.00,VWS V14.01,2013-02-21 11:10:00,
2013-02-21 06:15:00,27.7,15.6,30.15,SE,124,2.0,4.0,60,0.00,,---,0.00,VWS V14.01,2013-02-21 11:15:00,
2013-02-21 06:20:00,27.4,15.4,30.15,SE,124,2.0,2.0,60,0.00,,---,0.00,VWS V14.01,2013-02-21 11:20:00,
2013-02-21 06:25:00,27.2,14.8,30.15,SE,126,1.0,2.0,59,0.00,,---,0.00,VWS V14.01,2013-02-21 11:25:00,
2013-02-21 06:30:00,27.1,15.4,30.16,SE,126,2.0,4.0,61,0.00,,---,0.00,VWS V14.01,2013-02-21 11:30:00,
2013-02-21 06:35:00,27.1,14.3,30.16,SSE,168,4.0,5.0,58,0.00,,---,0.00,VWS V14.01,2013-02-21 11:35:00,
2013-02-21 06:40:00,27.4,13.4,30.16,SSE,168,2.0,5.0,55,0.00,,---,0.00,VWS V14.01,2013-02-21 11:40:00,
2013-02-21 06:45:00,27.9,13.8,30.16,SSW,212,3.0,5.0,55,0.00,,---,0.00,VWS V14.01,2013-02-21 11:45:00,
2013-02-21 06:50:00,28.4,15.1,30.16,ESE,103,0.0,4.0,57,0.00,,---,0.00,VWS V14.01,2013-02-21 11:50:00,
2013-02-21 06:55:00,28.5,14.8,30.16,ESE,105,4.0,4.0,56,0.00,,---,0.00,VWS V14.01,2013-02-21 11:55:00,
2013-02-21 07:00:00,28.6,14.1,30.16,ESE,119,1.0,5.0,54,0.00,,---,0.00,VWS V14.01,2013-02-21 12:00:00,
2013-02-21 07:05:00,28.8,14.7,30.16,ENE,67,2.0,5.0,55,0.00,,---,0.00,VWS V14.01,2013-02-21 12:05:00,
2013-02-21 07:10:00,29.4,14.0,30.17,NE,50,0.0,6.0,52,0.00,,---,0.00,VWS V14.01,2013-02-21 12:10:00,
2013-02-21 07:15:00,29.8,13.4,30.17,SSW,211,2.0,4.0,50,0.00,,---,0.00,VWS V14.01,2013-02-21 12:15:00,
2013-02-21 07:20:00,30.0,13.6,30.17,South,185,3.0,5.0,50,0.00,,---,0.00,VWS V14.01,2013-02-21 12:20:00,
2013-02-21 07:25:00,30.1,12.8,30.17,SSW,209,4.0,5.0,48,0.00,,---,0.00,VWS V14.01,2013-02-21 12:25:00,
2013-02-21 07:30:00,30.2,13.4,30.17,South,176,0.0,4.0,49,0.00,,---,0.00,VWS V14.01,2013-02-21 12:30:00,
2013-02-21 07:35:00,30.2,12.9,30.17,ENE,78,3.0,4.0,48,0.00,,---,0.00,VWS V14.01,2013-02-21 12:35:00,
2013-02-21 07:40:00,30.3,14.8,30.17,NNE,24,0.0,4.0,52,0.00,,---,0.00,VWS V14.01,2013-02-21 12:40:00,
2013-02-21 07:45:00,30.4,14.4,30.18,NNE,24,0.0,3.0,51,0.00,,---,0.00,VWS V14.01,2013-02-21 12:45:00,
2013-02-21 07:50:00,30.7,14.7,30.18,NNE,24,1.0,3.0,51,0.00,,---,0.00,VWS V14.01,2013-02-21 12:50:00,
2013-02-21 07:55:00,31.0,16.3,30.17,NNE,24,0.0,2.0,54,0.00,,---,0.00,VWS V14.01,2013-02-21 12:55:00,
2013-02-21 08:00:00,31.3,16.6,30.17,NNE,24,0.0,0.0,54,0.00,,---,0.00,VWS V14.01,2013-02-21 13:00:00,
2013-02-21 08:05:00,31.6,18.1,30.18,North,5,3.0,5.0,57,0.00,,---,0.00,VWS V14.01,2013-02-21 13:05:00,
2013-02-21 08:10:00,32.1,16.9,30.18,NW,325,4.0,6.0,53,0.00,,---,0.00,VWS V14.01,2013-02-21 13:10:00,
2013-02-21 08:15:00,32.2,17.0,30.18,NW,309,1.0,5.0,53,0.00,,---,0.00,VWS V14.01,2013-02-21 13:15:00,
2013-02-21 08:20:00,32.3,16.7,30.18,NW,309,1.0,4.0,52,0.00,,---,0.00,VWS V14.01,2013-02-21 13:20:00,
2013-02-21 08:25:00,32.5,16.4,30.19,NNW,333,4.0,5.0,51,0.00,,---,0.00,VWS V14.01,2013-02-21 13:25:00,
2013-02-21 08:30:00,32.7,16.1,30.19,NNW,333,4.0,5.0,50,0.00,,---,0.00,VWS V14.01,2013-02-21 13:30:00,
2013-02-21 08:35:00,32.9,15.9,30.20,NNW,333,2.0,5.0,49,0.00,,---,0.00,VWS V14.01,2013-02-21 13:35:00,
2013-02-21 08:40:00,33.2,16.1,30.21,NNW,333,2.0,4.0,49,0.00,,---,0.00,VWS V14.01,2013-02-21 13:40:00,
2013-02-21 08:45:00,33.4,15.8,30.20,North,5,2.0,6.0,48,0.00,,---,0.00,VWS V14.01,2013-02-21 13:45:00,
2013-02-21 08:50:00,33.6,16.0,30.20,ENE,70,0.0,4.0,48,0.00,,---,0.00,VWS V14.01,2013-02-21 13:50:00,
2013-02-21 08:55:00,33.8,15.7,30.19,North,355,5.0,7.0,47,0.00,,---,0.00,VWS V14.01,2013-02-21 13:55:00,
2013-02-21 09:00:00,34.2,16.1,30.20,NNW,337,6.0,7.0,47,0.00,,---,0.00,VWS V14.01,2013-02-21 14:00:00,
2013-02-21 09:05:00,34.6,16.0,30.19,North,351,2.0,7.0,46,0.00,,---,0.00,VWS V14.01,2013-02-21 14:05:00,
2013-02-21 09:10:00,35.2,16.0,30.19,NNE,20,1.0,4.0,45,0.00,,---,0.00,VWS V14.01,2013-02-21 14:10:00,
2013-02-21 09:15:00,35.7,17.0,30.19,NNW,340,4.0,4.0,46,0.00,,---,0.00,VWS V14.01,2013-02-21 14:15:00,
2013-02-21 09:20:00,36.4,17.1,30.19,NW,309,5.0,6.0,45,0.00,,---,0.00,VWS V14.01,2013-02-21 14:20:00,
2013-02-21 09:25:00,36.9,16.5,30.19,WNW,300,1.0,6.0,43,0.00,,---,0.00,VWS V14.01,2013-02-21 14:25:00,
2013-02-21 09:30:00,37.3,16.9,30.19,WNW,300,0.0,4.0,43,0.00,,---,0.00,VWS V14.01,2013-02-21 14:30:00,
2013-02-21 09:35:00,37.8,16.2,30.19,North,355,4.0,6.0,41,0.00,,---,0.00,VWS V14.01,2013-02-21 14:35:00,
2013-02-21 09:40:00,38.1,17.0,30.20,North,355,0.0,4.0,42,0.00,,---,0.00,VWS V14.01,2013-02-21 14:40:00,
2013-02-21 09:45:00,38.4,16.2,30.19,North,355,0.0,2.0,40,0.00,,---,0.00,VWS V14.01,2013-02-21 14:45:00,
2013-02-21 09:50:00,38.9,16.1,30.20,North,355,1.0,4.0,39,0.00,,---,0.00,VWS V14.01,2013-02-21 14:50:00,
2013-02-21 09:55:00,39.5,16.6,30.20,NNW,348,5.0,6.0,39,0.00,,---,0.00,VWS V14.01,2013-02-21 14:55:00,
2013-02-21 10:00:00,40.0,16.5,30.20,NNW,348,0.0,5.0,38,0.00,,---,0.00,VWS V14.01,2013-02-21 15:00:00,
2013-02-21 10:05:00,40.5,17.5,30.19,NNW,337,4.0,6.0,39,0.00,,---,0.00,VWS V14.01,2013-02-21 15:05:00,
2013-02-21 10:10:00,41.0,16.7,30.19,NNE,17,2.0,5.0,37,0.00,,---,0.00,VWS V14.01,2013-02-21 15:10:00,
2013-02-21 10:15:00,41.3,16.4,30.20,NNE,17,0.0,3.0,36,0.00,,---,0.00,VWS V14.01,2013-02-21 15:15:00,
2013-02-21 10:20:00,41.7,17.4,30.20,NNE,17,1.0,1.0,37,0.00,,---,0.00,VWS V14.01,2013-02-21 15:20:00,
2013-02-21 10:25:00,42.3,16.6,30.19,NW,315,2.0,6.0,35,0.00,,---,0.00,VWS V14.01,2013-02-21 15:25:00,
2013-02-21 10:30:00,42.7,17.0,30.19,SW,236,3.0,6.0,35,0.00,,---,0.00,VWS V14.01,2013-02-21 15:30:00,
2013-02-21 10:35:00,42.7,17.0,30.19,NW,316,4.0,7.0,35,0.00,,---,0.00,VWS V14.01,2013-02-21 15:35:00,
2013-02-21 10:40:00,43.0,17.9,30.19,NW,316,1.0,6.0,36,0.00,,---,0.00,VWS V14.01,2013-02-21 15:40:00,
2013-02-21 10:45:00,43.3,17.5,30.19,NW,323,5.0,7.0,35,0.00,,---,0.00,VWS V14.01,2013-02-21 15:45:00,
2013-02-21 10:50:00,43.4,17.6,30.19,West,267,0.0,7.0,35,0.00,,---,0.00,VWS V14.01,2013-02-21 15:50:00,
2013-02-21 10:55:00,43.6,17.8,30.19,NW,323,4.0,7.0,35,0.00,,---,0.00,VWS V14.01,2013-02-21 15:55:00,
2013-02-21 11:00:00,43.9,18.0,30.19,NW,317,5.0,6.0,35,0.00,,---,0.00,VWS V14.01,2013-02-21 16:00:00,
2013-02-21 11:05:00,44.2,17.6,30.19,NW,306,5.0,8.0,34,0.00,,---,0.00,VWS V14.01,2013-02-21 16:05:00,
2013-02-21 11:10:00,44.4,17.8,30.19,NNW,334,1.0,7.0,34,0.00,,---,0.00,VWS V14.01,2013-02-21 16:10:00,
2013-02-21 11:15:00,44.6,17.3,30.19,WNW,292,0.0,6.0,33,0.00,,---,0.00,VWS V14.01,2013-02-21 16:15:00,
2013-02-21 11:20:00,44.9,18.2,30.19,North,11,5.0,10.0,34,0.00,,---,0.00,VWS V14.01,2013-02-21 16:20:00,
2013-02-21 11:25:00,45.2,19.2,30.19,NW,322,0.0,8.0,35,0.00,,---,0.00,VWS V14.01,2013-02-21 16:25:00,
2013-02-21 11:30:00,45.7,18.3,30.19,NW,325,4.0,9.0,33,0.00,,---,0.00,VWS V14.01,2013-02-21 16:30:00,
2013-02-21 11:35:00,46.0,19.2,30.18,North,5,4.0,7.0,34,0.00,,---,0.00,VWS V14.01,2013-02-21 16:35:00,
2013-02-21 11:40:00,46.4,17.4,30.18,NNW,334,1.0,6.0,31,0.00,,---,0.00,VWS V14.01,2013-02-21 16:40:00,
2013-02-21 11:45:00,46.7,18.4,30.18,NE,46,0.0,8.0,32,0.00,,---,0.00,VWS V14.01,2013-02-21 16:45:00,
2013-02-21 11:50:00,46.9,18.6,30.18,NNW,334,4.0,8.0,32,0.00,,---,0.00,VWS V14.01,2013-02-21 16:50:00,
2013-02-21 11:55:00,47.1,17.3,30.17,NW,305,0.0,6.0,30,0.00,,---,0.00,VWS V14.01,2013-02-21 16:55:00,
2013-02-21 12:00:00,47.4,17.5,30.17,WNW,298,5.0,8.0,30,0.00,,---,0.00,VWS V14.01,2013-02-21 17:00:00,
2013-02-21 12:05:00,47.8,19.4,30.17,West,278,0.0,6.0,32,0.00,,---,0.00,VWS V14.01,2013-02-21 17:05:00,
2013-02-21 12:10:00,48.1,18.1,30.16,NNW,339,7.0,7.0,30,0.00,,---,0.00,VWS V14.01,2013-02-21 17:10:00,
2013-02-21 12:15:00,48.3,19.1,30.16,WNW,300,4.0,8.0,31,0.00,,---,0.00,VWS V14.01,2013-02-21 17:15:00,
2013-02-21 12:20:00,48.4,17.6,30.15,NNW,329,2.0,7.0,29,0.00,,---,0.00,VWS V14.01,2013-02-21 17:20:00,
2013-02-21 12:25:00,48.7,19.4,30.15,NNE,13,7.0,8.0,31,0.00,,---,0.00,VWS V14.01,2013-02-21 17:25:00,
2013-02-21 12:30:00,48.9,18.1,30.15,NW,315,0.0,7.0,29,0.00,,---,0.00,VWS V14.01,2013-02-21 17:30:00,
2013-02-21 12:35:00,49.2,18.3,30.14,NNE,28,1.0,6.0,29,0.00,,---,0.00,VWS V14.01,2013-02-21 17:35:00,
2013-02-21 12:40:00,49.3,18.4,30.14,SW,232,1.0,4.0,29,0.00,,---,0.00,VWS V14.01,2013-02-21 17:40:00,
2013-02-21 12:45:00,49.7,18.8,30.14,NNE,22,3.0,6.0,29,0.00,,---,0.00,VWS V14.01,2013-02-21 17:45:00,
2013-02-21 12:50:00,50.0,18.2,30.14,NE,48,3.0,7.0,28,0.00,,---,0.00,VWS V14.01,2013-02-21 17:50:00,
2013-02-21 12:55:00,50.0,18.2,30.14,ENE,76,1.0,6.0,28,0.00,,---,0.00,VWS V14.01,2013-02-21 17:55:00,
2013-02-21 13:00:00,50.2,17.5,30.14,NNE,17,1.0,5.0,27,0.00,,---,0.00,VWS V14.01,2013-02-21 18:00:00,
2013-02-21 13:05:00,50.4,17.7,30.13,SSW,194,1.0,6.0,27,0.00,,---,0.00,VWS V14.01,2013-02-21 18:05:00,
2013-02-21 13:10:00,50.8,18.9,30.12,NE,38,6.0,6.0,28,0.00,,---,0.00,VWS V14.01,2013-02-21 18:10:00,
2013-02-21 13:15:00,51.1,20.0,30.12,NNW,327,4.0,6.0,29,0.00,,---,0.00,VWS V14.01,2013-02-21 18:15:00,
2013-02-21 13:20:00,51.3,18.5,30.12,NNW,335,4.0,7.0,27,0.00,,---,0.00,VWS V14.01,2013-02-21 18:20:00,
2013-02-21 13:25:00,51.4,18.6,30.12,NNW,339,4.0,9.0,27,0.00,,---,0.00,VWS V14.01,2013-02-21 18:25:00,
2013-02-21 13:30:00,51.7,18.8,30.12,North,349,4.0,8.0,27,0.00,,---,0.00,VWS V14.01,2013-02-21 18:30:00,
2013-02-21 13:35:00,51.9,17.2,30.12,ENE,76,1.0,6.0,25,0.00,,---,0.00,VWS V14.01,2013-02-21 18:35:00,
2013-02-21 13:40:00,52.2,20.1,30.11,North,351,6.0,6.0,28,0.00,,---,0.00,VWS V14.01,2013-02-21 18:40:00,
2013-02-21 13:45:00,52.6,19.6,30.11,NNE,29,2.0,9.0,27,0.00,,---,0.00,VWS V14.01,2013-02-21 18:45:00,
2013-02-21 13:50:00,52.8,18.9,30.11,WSW,245,4.0,8.0,26,0.00,,---,0.00,VWS V14.01,2013-02-21 18:50:00,
2013-02-21 13:55:00,52.8,18.9,30.11,NNE,18,3.0,5.0,26,0.00,,---,0.00,VWS V14.01,2013-02-21 18:55:00,
2013-02-21 14:00:00,53.2,18.3,30.11,NW,312,2.0,5.0,25,0.00,,---,0.00,VWS V14.01,2013-02-21 19:00:00,
2013-02-21 14:05:00,53.4,18.5,30.10,East,82,1.0,3.0,25,0.00,,---,0.00,VWS V14.01,2013-02-21 19:05:00,
2013-02-21 14:10:00,53.9,18.9,30.10,WSW,240,4.0,5.0,25,0.00,,---,0.00,VWS V14.01,2013-02-21 19:10:00,
2013-02-21 14:15:00,54.2,21.0,30.10,NW,323,1.0,5.0,27,0.00,,---,0.00,VWS V14.01,2013-02-21 19:15:00,
2013-02-21 14:20:00,54.4,19.3,30.10,WNW,288,6.0,8.0,25,0.00,,---,0.00,VWS V14.01,2013-02-21 19:20:00,
2013-02-21 14:25:00,54.4,19.3,30.10,WNW,298,2.0,7.0,25,0.00,,---,0.00,VWS V14.01,2013-02-21 19:25:00,
2013-02-21 14:30:00,54.4,18.4,30.10,SW,235,4.0,5.0,24,0.00,,---,0.00,VWS V14.01,2013-02-21 19:30:00,
2013-02-21 14:35:00,54.5,20.3,30.10,WNW,300,6.0,7.0,26,0.00,,---,0.00,VWS V14.01,2013-02-21 19:35:00,
2013-02-21 14:40:00,54.6,18.5,30.10,WNW,294,1.0,7.0,24,0.00,,---,0.00,VWS V14.01,2013-02-21 19:40:00,
2013-02-21 14:45:00,54.7,17.6,30.10,WNW,289,1.0,6.0,23,0.00,,---,0.00,VWS V14.01,2013-02-21 19:45:00,
2013-02-21 14:50:00,54.8,19.7,30.09,North,9,5.0,8.0,25,0.00,,---,0.00,VWS V14.01,2013-02-21 19:50:00,
2013-02-21 14:55:00,54.9,19.8,30.09,West,274,1.0,6.0,25,0.00,,---,0.00,VWS V14.01,2013-02-21 19:55:00,
2013-02-21 15:00:00,54.9,18.8,30.10,West,265,2.0,7.0,24,0.00,,---,0.00,VWS V14.01,2013-02-21 20:00:00,
2013-02-21 15:05:00,54.9,18.8,30.10,WNW,291,2.0,8.0,24,0.00,,---,0.00,VWS V14.01,2013-02-21 20:05:00,
2013-02-21 15:10:00,55.0,20.8,30.10,North,360,3.0,9.0,26,0.00,,---,0.00,VWS V14.01,2013-02-21 20:10:00,
2013-02-21 15:15:00,55.2,20.0,30.09,WNW,300,2.0,6.0,25,0.00,,---,0.00,VWS V14.01,2013-02-21 20:15:00,
2013-02-21 15:20:00,55.3,19.1,30.10,West,279,4.0,8.0,24,0.00,,---,0.00,VWS V14.01,2013-02-21 20:20:00,
2013-02-21 15:25:00,55.3,18.1,30.10,NNW,327,4.0,7.0,23,0.00,,---,0.00,VWS V14.01,2013-02-21 20:25:00,
2013-02-21 15:30:00,55.3,18.1,30.10,WNW,291,4.0,5.0,23,0.00,,---,0.00,VWS V14.01,2013-02-21 20:30:00,
2013-02-21 15:35:00,55.2,18.1,30.10,North,350,4.0,6.0,23,0.00,,---,0.00,VWS V14.01,2013-02-21 20:35:00,
2013-02-21 15:40:00,55.4,21.1,30.10,NW,320,5.0,7.0,26,0.00,,---,0.00,VWS V14.01,2013-02-21 20:40:00,
2013-02-21 15:45:00,55.5,19.3,30.11,North,350,4.0,7.0,24,0.00,,---,0.00,VWS V14.01,2013-02-21 20:45:00,
2013-02-21 15:50:00,55.6,20.4,30.10,NW,317,0.0,7.0,25,0.00,,---,0.00,VWS V14.01,2013-02-21 20:50:00,
2013-02-21 15:55:00,55.5,19.3,30.11,NW,312,1.0,7.0,24,0.00,,---,0.00,VWS V14.01,2013-02-21 20:55:00,
2013-02-21 16:00:00,55.6,18.4,30.11,North,5,3.0,6.0,23,0.00,,---,0.00,VWS V14.01,2013-02-21 21:00:00,
2013-02-21 16:05:00,55.6,18.4,30.10,NNW,342,1.0,6.0,23,0.00,,---,0.00,VWS V14.01,2013-02-21 21:05:00,
2013-02-21 16:10:00,55.7,19.5,30.10,North,349,1.0,7.0,24,0.00,,---,0.00,VWS V14.01,2013-02-21 21:10:00,
2013-02-21 16:15:00,55.8,18.6,30.10,NNE,29,2.0,5.0,23,0.00,,---,0.00,VWS V14.01,2013-02-21 21:15:00,
2013-02-21 16:20:00,55.8,17.5,30.11,NNE,29,3.0,4.0,22,0.00,,---,0.00,VWS V14.01,2013-02-21 21:20:00,
2013-02-21 16:25:00,55.7,18.5,30.11,NNE,29,3.0,4.0,23,0.00,,---,0.00,VWS V14.01,2013-02-21 21:25:00,
2013-02-21 16:30:00,55.4,17.2,30.11,NNE,29,0.0,3.0,22,0.00,,---,0.00,VWS V14.01,2013-02-21 21:30:00,
2013-02-21 16:35:00,55.2,18.1,30.12,NNE,29,1.0,1.0,23,0.00,,---,0.00,VWS V14.01,2013-02-21 21:35:00,
2013-02-21 16:40:00,55.1,18.0,30.12,NNE,29,1.0,3.0,23,0.00,,---,0.00,VWS V14.01,2013-02-21 21:40:00,
2013-02-21 16:45:00,55.0,18.9,30.12,NNE,29,1.0,2.0,24,0.00,,---,0.00,VWS V14.01,2013-02-21 21:45:00,
2013-02-21 16:50:00,54.8,18.7,30.12,NNW,338,4.0,5.0,24,0.00,,---,0.00,VWS V14.01,2013-02-21 21:50:00,
2013-02-21 16:55:00,54.6,18.5,30.12,NNW,342,1.0,4.0,24,0.00,,---,0.00,VWS V14.01,2013-02-21 21:55:00,
2013-02-21 17:00:00,54.4,18.4,30.13,NNW,342,2.0,4.0,24,0.00,,---,0.00,VWS V14.01,2013-02-21 22:00:00,
2013-02-21 17:05:00,54.1,18.1,30.12,NNW,342,0.0,4.0,24,0.00,,---,0.00,VWS V14.01,2013-02-21 22:05:00,
2013-02-21 17:10:00,53.9,18.9,30.12,NNW,342,1.0,2.0,25,0.00,,---,0.00,VWS V14.01,2013-02-21 22:10:00,
2013-02-21 17:15:00,53.8,19.7,30.13,NNW,342,0.0,1.0,26,0.00,,---,0.00,VWS V14.01,2013-02-21 22:15:00,
2013-02-21 17:20:00,53.7,20.5,30.13,NNW,342,0.0,1.0,27,0.00,,---,0.00,VWS V14.01,2013-02-21 22:20:00,
2013-02-21 17:25:00,53.5,20.4,30.12,NNW,342,0.0,2.0,27,0.00,,---,0.00,VWS V14.01,2013-02-21 22:25:00,
2013-02-21 17:30:00,53.3,19.3,30.12,NNW,342,0.0,1.0,26,0.00,,---,0.00,VWS V14.01,2013-02-21 22:30:00,
2013-02-21 17:35:00,53.0,18.1,30.11,WNW,299,4.0,4.0,25,0.00,,---,0.00,VWS V14.01,2013-02-21 22:35:00,
2013-02-21 17:40:00,52.7,19.7,30.11,WNW,292,0.0,4.0,27,0.00,,---,0.00,VWS V14.01,2013-02-21 22:40:00,
2013-02-21 17:45:00,52.4,19.4,30.11,WNW,292,0.0,1.0,27,0.00,,---,0.00,VWS V14.01,2013-02-21 22:45:00,
2013-02-21 17:50:00,52.2,21.7,30.11,WNW,292,0.0,1.0,30,0.00,,---,0.00,VWS V14.01,2013-02-21 22:50:00,
2013-02-21 17:55:00,52.0,23.1,30.11,WNW,292,0.0,0.0,32,0.00,,---,0.00,VWS V14.01,2013-02-21 22:55:00,
2013-02-21 18:00:00,51.7,24.3,30.11,WNW,292,0.0,0.0,34,0.00,,---,0.00,VWS V14.01,2013-02-21 23:00:00,
2013-02-21 18:05:00,51.4,23.3,30.12,WNW,292,0.0,1.0,33,0.00,,---,0.00,VWS V14.01,2013-02-21 23:05:00,
2013-02-21 18:10:00,50.9,23.5,30.12,WNW,292,0.0,0.0,34,0.00,,---,0.00,VWS V14.01,2013-02-21 23:10:00,
2013-02-21 18:15:00,50.4,23.1,30.12,WNW,292,0.0,0.0,34,0.00,,---,0.00,VWS V14.01,2013-02-21 23:15:00,
2013-02-21 18:20:00,49.9,22.7,30.13,WNW,292,0.0,0.0,34,0.00,,---,0.00,VWS V14.01,2013-02-21 23:20:00,
2013-02-21 18:25:00,49.5,23.0,30.13,WNW,292,1.0,2.0,35,0.00,,---,0.00,VWS V14.01,2013-02-21 23:25:00,
2013-02-21 18:30:00,48.9,23.8,30.14,WNW,292,0.0,4.0,37,0.00,,---,0.00,VWS V14.01,2013-02-21 23:30:00,
2013-02-21 18:35:00,48.5,22.8,30.14,West,281,2.0,4.0,36,0.00,,---,0.00,VWS V14.01,2013-02-21 23:35:00,
2013-02-21 18:40:00,48.1,24.3,30.15,West,281,0.0,2.0,39,0.00,,---,0.00,VWS V14.01,2013-02-21 23:40:00,
2013-02-21 18:45:00,47.7,24.6,30.15,West,281,0.0,0.0,40,0.00,,---,0.00,VWS V14.01,2013-02-21 23:45:00,
2013-02-21 18:50:00,47.5,26.1,30.15,West,281,0.0,0.0,43,0.00,,---,0.00,VWS V14.01,2013-02-21 23:50:00,
2013-02-21 18:55:00,47.2,25.9,30.15,West,281,0.0,1.0,43,0.00,,---,0.00,VWS V14.01,2013-02-21 23:55:00,
2013-02-21 19:00:00,46.8,27.1,30.16,West,281,1.0,2.0,46,0.00,,---,0.00,VWS V14.01,2013-02-22 00:00:00,
2013-02-21 19:05:00,46.5,24.7,30.15,West,281,0.0,2.0,42,0.00,,---,0.00,VWS V14.01,2013-02-22 00:05:00,
2013-02-21 19:10:00,46.3,24.5,30.15,West,281,0.0,0.0,42,0.00,,---,0.00,VWS V14.01,2013-02-22 00:10:00,
2013-02-21 19:15:00,46.2,26.0,30.15,West,281,0.0,2.0,45,0.00,,---,0.00,VWS V14.01,2013-02-22 00:15:00,
2013-02-21 19:20:00,46.1,24.9,30.15,West,281,0.0,1.0,43,0.00,,---,0.00,VWS V14.01,2013-02-22 00:20:00,
2013-02-21 19:25:00,46.0,23.0,30.15,West,281,0.0,4.0,40,0.00,,---,0.00,VWS V14.01,2013-02-22 00:25:00,
2013-02-21 19:30:00,45.9,24.1,30.15,West,281,0.0,0.0,42,0.00,,---,0.00,VWS V14.01,2013-02-22 00:30:00,
2013-02-21 19:35:00,45.9,24.1,30.15,West,281,0.0,0.0,42,0.00,,---,0.00,VWS V14.01,2013-02-22 00:35:00,
2013-02-21 19:40:00,45.9,24.1,30.15,West,281,0.0,2.0,42,0.00,,---,0.00,VWS V14.01,2013-02-22 00:40:00,
2013-02-21 19:45:00,45.8,25.1,30.15,West,281,0.0,0.0,44,0.00,,---,0.00,VWS V14.01,2013-02-22 00:45:00,
2013-02-21 19:50:00,45.7,23.9,30.15,West,281,0.0,1.0,42,0.00,,---,0.00,VWS V14.01,2013-02-22 00:50:00,
2013-02-21 19:55:00,45.6,22.7,30.15,West,281,2.0,4.0,40,0.00,,---,0.00,VWS V14.01,2013-02-22 00:55:00,
2013-02-21 20:00:00,45.6,22.1,30.14,West,281,2.0,4.0,39,0.00,,---,0.00,VWS V14.01,2013-02-22 01:00:00,
2013-02-21 20:05:00,45.5,22.0,30.14,West,265,4.0,4.0,39,0.00,,---,0.00,VWS V14.01,2013-02-22 01:05:00,
2013-02-21 20:10:00,45.5,20.8,30.14,West,261,3.0,4.0,37,0.00,,---,0.00,VWS V14.01,2013-02-22 01:10:00,
2013-02-21 20:15:00,45.5,22.0,30.14,West,261,2.0,3.0,39,0.00,,---,0.00,VWS V14.01,2013-02-22 01:15:00,
2013-02-21 20:20:00,45.5,20.1,30.14,West,261,2.0,2.0,36,0.00,,---,0.00,VWS V14.01,2013-02-22 01:20:00,
2013-02-21 20:25:00,45.6,24.4,30.15,West,261,0.0,2.0,43,0.00,,---,0.00,VWS V14.01,2013-02-22 01:25:00,
2013-02-21 20:30:00,45.5,21.4,30.15,West,261,1.0,3.0,38,0.00,,---,0.00,VWS V14.01,2013-02-22 01:30:00,
2013-02-21 20:35:00,45.4,21.3,30.16,West,261,0.0,2.0,38,0.00,,---,0.00,VWS V14.01,2013-02-22 01:35:00,
2013-02-21 20:40:00,45.4,21.3,30.17,West,259,0.0,2.0,38,0.00,,---,0.00,VWS V14.01,2013-02-22 01:40:00,
2013-02-21 20:45:00,45.4,21.9,30.17,WSW,258,1.0,2.0,39,0.00,,---,0.00,VWS V14.01,2013-02-22 01:45:00,
2013-02-21 20:50:00,45.4,19.4,30.17,WSW,250,2.0,3.0,35,0.00,,---,0.00,VWS V14.01,2013-02-22 01:50:00,
2013-02-21 20:55:00,45.6,21.5,30.18,WSW,250,0.0,2.0,38,0.00,,---,0.00,VWS V14.01,2013-02-22 01:55:00,
2013-02-21 21:00:00,45.7,23.4,30.18,WSW,250,1.0,3.0,41,0.00,,---,0.00,VWS V14.01,2013-02-22 02:00:00,
2013-02-21 21:05:00,45.7,21.6,30.18,WSW,248,0.0,2.0,38,0.00,,---,0.00,VWS V14.01,2013-02-22 02:05:00,
2013-02-21 21:10:00,45.6,21.5,30.17,WSW,245,1.0,4.0,38,0.00,,---,0.00,VWS V14.01,2013-02-22 02:10:00,
2013-02-21 21:15:00,45.6,20.9,30.18,South,180,3.0,5.0,37,0.00,,---,0.00,VWS V14.01,2013-02-22 02:15:00,
2013-02-21 21:20:00,45.7,19.6,30.17,South,182,2.0,4.0,35,0.00,,---,0.00,VWS V14.01,2013-02-22 02:20:00,
2013-02-21 21:25:00,45.8,18.4,30.18,SSE,153,2.0,5.0,33,0.00,,---,0.00,VWS V14.01,2013-02-22 02:25:00,
2013-02-21 21:30:00,46.0,20.6,30.19,SSE,155,0.0,4.0,36,0.00,,---,0.00,VWS V14.01,2013-02-22 02:30:00,
2013-02-21 21:35:00,46.0,21.8,30.18,SSE,155,0.0,2.0,38,0.00,,---,0.00,VWS V14.01,2013-02-22 02:35:00,
2013-02-21 21:40:00,46.1,20.0,30.18,SSE,155,0.0,4.0,35,0.00,,---,0.00,VWS V14.01,2013-02-22 02:40:00,
2013-02-21 21:45:00,46.0,21.2,30.18,SSE,155,1.0,2.0,37,0.00,,---,0.00,VWS V14.01,2013-02-22 02:45:00,
2013-02-21 21:50:00,46.0,19.9,30.18,SSE,155,1.0,2.0,35,0.00,,---,0.00,VWS V14.01,2013-02-22 02:50:00,
2013-02-21 21:55:00,46.0,21.2,30.18,SSE,155,1.0,4.0,37,0.00,,---,0.00,VWS V14.01,2013-02-22 02:55:00,
2013-02-21 22:00:00,45.9,19.1,30.17,SSE,157,0.0,4.0,34,0.00,,---,0.00,VWS V14.01,2013-02-22 03:00:00,
2013-02-21 22:05:00,45.9,19.8,30.18,South,179,0.0,5.0,35,0.00,,---,0.00,VWS V14.01,2013-02-22 03:05:00,
2013-02-21 22:10:00,45.9,19.1,30.18,SSW,194,1.0,6.0,34,0.00,,---,0.00,VWS V14.01,2013-02-22 03:10:00,
2013-02-21 22:15:00,46.0,19.9,30.19,SSW,198,1.0,3.0,35,0.00,,---,0.00,VWS V14.01,2013-02-22 03:15:00,
2013-02-21 22:20:00,46.0,19.9,30.20,SSW,205,2.0,2.0,35,0.00,,---,0.00,VWS V14.01,2013-02-22 03:20:00,
2013-02-21 22:25:00,46.0,19.2,30.21,SSW,211,2.0,3.0,34,0.00,,---,0.00,VWS V14.01,2013-02-22 03:25:00,
2013-02-21 22:30:00,46.1,19.3,30.21,West,267,0.0,4.0,34,0.00,,---,0.00,VWS V14.01,2013-02-22 03:30:00,
2013-02-21 22:35:00,46.0,19.2,30.22,West,265,0.0,2.0,34,0.00,,---,0.00,VWS V14.01,2013-02-22 03:35:00,
2013-02-21 22:40:00,46.0,19.9,30.23,West,265,0.0,0.0,35,0.00,,---,0.00,VWS V14.01,2013-02-22 03:40:00,
2013-02-21 22:45:00,46.0,21.2,30.23,West,265,0.0,0.0,37,0.00,,---,0.00,VWS V14.01,2013-02-22 03:45:00,
2013-02-21 22:50:00,46.0,24.2,30.24,West,265,0.0,0.0,42,0.00,,---,0.00,VWS V14.01,2013-02-22 03:50:00,
2013-02-21 22:55:00,45.8,24.0,30.24,West,265,0.0,1.0,42,0.00,,---,0.00,VWS V14.01,2013-02-22 03:55:00,
2013-02-21 23:00:00,45.6,25.5,30.23,West,265,0.0,0.0,45,0.00,,---,0.00,VWS V14.01,2013-02-22 04:00:00,
2013-02-21 23:05:00,45.4,24.8,30.23,West,265,0.0,0.0,44,0.00,,---,0.00,VWS V14.01,2013-02-22 04:05:00,
2013-02-21 23:10:00,45.2,24.0,30.23,West,265,0.0,0.0,43,0.00,,---,0.00,VWS V14.01,2013-02-22 04:10:00,
2013-02-21 23:15:00,45.0,25.0,30.23,West,265,2.0,2.0,45,0.00,,---,0.00,VWS V14.01,2013-02-22 04:15:00,
2013-02-21 23:20:00,44.8,20.8,30.24,WNW,289,1.0,5.0,38,0.00,,---,0.00,VWS V14.01,2013-02-22 04:20:00,
2013-02-21 23:25:00,44.7,22.5,30.24,WNW,289,0.0,1.0,41,0.00,,---,0.00,VWS V14.01,2013-02-22 04:25:00,
2013-02-21 23:30:00,44.7,23.0,30.24,WNW,289,0.0,0.0,42,0.00,,---,0.00,VWS V14.01,2013-02-22 04:30:00,
2013-02-21 23:35:00,44.7,24.7,30.25,WNW,288,0.0,1.0,45,0.00,,---,0.00,VWS V14.01,2013-02-22 04:35:00,
2013-02-21 23:40:00,44.6,24.6,30.25,WNW,289,0.0,1.0,45,0.00,,---,0.00,VWS V14.01,2013-02-22 04:40:00,
2013-02-21 23:45:00,44.5,24.5,30.25,WNW,289,0.0,0.0,45,0.00,,---,0.00,VWS V14.01,2013-02-22 04:45:00,
2013-02-21 23:50:00,44.3,22.1,30.25,WSW,249,3.0,5.0,41,0.00,,---,0.00,VWS V14.01,2013-02-22 04:50:00,
2013-02-21 23:55:00,44.3,22.1,30.26,West,259,1.0,4.0,41,0.00,,---,0.00,VWS V14.01,2013-02-22 04:55:00,